This is the latest recevied weather packets stored in our database for station/object KK6MIG-13. If no packets are shown the sender has not sent any weather packets the latest 1 day(s).
| Time | Temp. | Humidity | Pressure | Rain* | Wind** | Luminosity | Snow |
|---|---|---|---|---|---|---|---|
| 1778026919 | 15° C | 1% | 1014.4 hPa | 0 mm | 4.92 m/s, 241° | 432 W/m² | - |
| 1778026860 | 15° C | 1% | 1014.4 hPa | 0 mm | 5.36 m/s, 244° | 524 W/m² | - |
| 1778026800 | 15° C | 1% | 1014.4 hPa | 0 mm | 5.36 m/s, 232° | 550 W/m² | - |
| 1778026739 | 15° C | 1% | 1014.4 hPa | 0 mm | 5.36 m/s, 221° | 568 W/m² | - |
| 1778026675 | 15° C | 1% | 1014.3 hPa | 0 mm | 5.36 m/s, 244° | 568 W/m² | - |
| 1778026614 | 15° C | 1% | 1014.4 hPa | 0 mm | 4.92 m/s, 252° | 594 W/m² | - |
| 1778026554 | 15° C | 1% | 1014.3 hPa | 0 mm | 5.36 m/s, 205° | 591 W/m² | - |
| 1778026494 | 15° C | 1% | 1014.3 hPa | 0 mm | 5.36 m/s, 250° | 589 W/m² | - |
| 1778026434 | 15° C | 1% | 1014.3 hPa | 0 mm | 4.92 m/s, 254° | 534 W/m² | - |
| 1778026366 | 15° C | 1% | 1014.3 hPa | 0 mm | 4.92 m/s, 250° | 612 W/m² | - |
| 1778026306 | 15° C | 1% | 1014.3 hPa | 0 mm | 4.92 m/s, 245° | 624 W/m² | - |
| 1778026254 | 15° C | 1% | 1014.3 hPa | 0 mm | 4.92 m/s, 254° | 643 W/m² | - |
| 1778026250 | 15° C | 1% | 1014.3 hPa | 0 mm | 4.92 m/s, 249° | 629 W/m² | - |
| 1778026133 | 15° C | 1% | 1014.4 hPa | 0 mm | 4.92 m/s, 261° | 645 W/m² | - |
| 1778026064 | 15° C | 1% | 1014.4 hPa | 0 mm | 4.92 m/s, 214° | 647 W/m² | - |
| 1778026004 | 15° C | 1% | 1014.4 hPa | 0 mm | 4.92 m/s, 252° | 659 W/m² | - |
| 1778025942 | 15° C | 1% | 1014.4 hPa | 0 mm | 4.92 m/s, 240° | 677 W/m² | - |
| 1778025881 | 15° C | 1% | 1014.4 hPa | 0 mm | 4.92 m/s, 238° | 668 W/m² | - |
| 1778025821 | 15° C | 1% | 1014.4 hPa | 0 mm | 4.92 m/s, 247° | 582 W/m² | - |
| 1778025761 | 15° C | 1% | 1014.4 hPa | 0 mm | 4.47 m/s, 273° | 582 W/m² | - |
| 1778025701 | 15° C | 1% | 1014.4 hPa | 0 mm | 4.47 m/s, 295° | 582 W/m² | - |
| 1778025640 | 15° C | 1% | 1014.4 hPa | 0 mm | 4.47 m/s, 277° | 582 W/m² | - |
| 1778025580 | 15° C | 1% | 1014.4 hPa | 0 mm | 4.47 m/s, 215° | 529 W/m² | - |
| 1778025520 | 15° C | 1% | 1014.4 hPa | 0 mm | 4.02 m/s, 242° | 529 W/m² | - |
| 1778025458 | 15° C | 1% | 1014.4 hPa | 0 mm | 4.02 m/s, 238° | 689 W/m² | - |
* Rain latest hour (hover to see other rain measurements)
** Current wind speed in m/s (hover to see current wind gust speed)